This is the latest recevied weather packets stored in our database for station/object N0NAI-13. If no packets are shown the sender has not sent any weather packets the latest 10 day(s).
| Time | Temp. | Humidity | Pressure | Rain* | Wind** | Luminosity | Snow |
|---|---|---|---|---|---|---|---|
| 1778002520 | 12.22° C | 40% | 1013 hPa | 0 mm | - | - | - |
| 1778001923 | 11.11° C | 42% | 1013 hPa | 0 mm | - | - | - |
| 1778001326 | 11.11° C | 43% | 1013.1 hPa | 0 mm | - | - | - |
| 1778000729 | 10.56° C | 43% | 1013.1 hPa | 0 mm | - | - | - |
| 1778000131 | 11.11° C | 44% | 1013.1 hPa | 0 mm | - | - | - |
| 1777999528 | 10° C | 43% | 1013.2 hPa | 0 mm | - | - | - |
| 1777998930 | 11.11° C | 44% | 1013.3 hPa | 0 mm | - | - | - |
| 1777998316 | 5.56° C | 45% | 1013.4 hPa | 0 mm | - | - | - |
| 1777997718 | 10.56° C | 42% | 1013.3 hPa | 0 mm | - | - | - |
| 1777997121 | 11.11° C | 42% | 1013.2 hPa | 0 mm | - | - | - |
| 1777996524 | 10.56° C | 42% | 1013.1 hPa | 0 mm | - | - | - |
| 1777995927 | 10° C | 43% | 1013 hPa | 0 mm | - | - | - |
| 1777995330 | 10.56° C | 42% | 1013 hPa | 0 mm | - | - | - |
| 1777994732 | 10° C | 43% | 1012.9 hPa | 0 mm | - | - | - |
| 1777994118 | 10° C | 44% | 1013 hPa | 0 mm | - | - | - |
| 1777993520 | 9.44° C | 45% | 1012.9 hPa | 0 mm | - | - | - |
| 1777992923 | 10° C | 47% | 1013 hPa | 0 mm | - | - | - |
| 1777992320 | 9.44° C | 45% | 1012.9 hPa | 0 mm | - | - | - |
| 1777991717 | 8.89° C | 49% | 1012.9 hPa | 0 mm | - | - | - |
| 1777991132 | 8.33° C | 51% | 1012.9 hPa | 0 mm | - | - | - |
| 1777990517 | 7.78° C | 55% | 1013 hPa | 0 mm | - | - | - |
| 1777989920 | 7.22° C | 58% | 1013 hPa | 0 mm | - | - | - |
| 1777989322 | 6.67° C | 59% | 1012.9 hPa | 0 mm | - | - | - |
| 1777988725 | 6.11° C | 59% | 1012.9 hPa | 0 mm | - | - | - |
| 1777988128 | 6.11° C | 60% | 1012.9 hPa | 0 mm | - | - | - |
* Rain latest hour (hover to see other rain measurements)
** Current wind speed in m/s (hover to see current wind gust speed)